Miscellaneous Local Product
Issued by NWS North Platte, NE

Home | Current Version | Previous Version | Text Only | Print | Product List | Glossary On
Versions: 1 2 3 4 5 6 7 8 9 10 11 12 13 14 15 16 17 18 19 20 21 22 23 24 25 26 27 28 29 30 31 32 33 34 35 36 37 38 39 40 41 42 43 44 45 46 47 48 49 50
000
AXUS43 KLBF 191210
MISLBF


WESTERN AND NORTH CENTRAL NEBRASKA HOURLY WEATHER ROUNDUP
NATIONAL WEATHER SERVICE NORTH PLATTE NE
700 AM CDT THU OCT 19 2017

NOTE: "FAIR" INDICATES FEW OR NO CLOUDS BELOW 12,000 FEET WITH NO
SIGNIFICANT WEATHER AND/OR OBSTRUCTIONS TO VISIBILITY.

NOTE: STATIONS NOT REPORTING VARIABLES SUCH AS SKY/WEATHER OR
PRESSURE ARE PROVIDED BY RAWS AND APRS NETWORKS AND ARE NOT UNDER
NATIONAL WEATHER SERVICE QUALITY CONTROL.

...OBSERVATIONS IN AND NEAR THE EASTERN PANHANDLE OF NEBRASKA...

CITY           SKY/WX    TMP DP  RH WIND       PRES   REMARKS
PINE RIDGE     CLOUDY    51  33  50 S12       29.94F
GORDON         FAIR      47  34  59 SW14      29.97S
CHADRON        CLOUDY    52  28  39 SW12      29.93S
ALLIANCE       CLOUDY    37  31  78 S9        30.00F WCI  30
SIDNEY         CLOUDY    37  30  75 S9        30.05F WCI  30
CRESCENT LAKE    N/A     39  34  82 S6          N/A  WCI  35
$$

...OBSERVATIONS IN NORTHERN NEBRASKA AND FAR SOUTHERN SOUTH DAKOTA...

CITY           SKY/WX    TMP DP  RH WIND       PRES   REMARKS
WINNER         FAIR      55  35  47 S25G32    29.93F
VALENTINE      CLOUDY    45  34  65 SW8       29.98F
THEDFORD       CLOUDY    45  35  68 SW3       30.04S
AINSWORTH      CLOUDY    44  36  72 S7        30.01S
O`NEILL        CLOUDY    40  36  83 SW5       30.03S
ORD            CLOUDY    33  29  85 CALM      30.05R
BROKEN BOW     CLOUDY    33  30  88 CALM      30.04S
VALENTINE NWR    N/A     42  33  70 S7          N/A
HALSEY           N/A     43  32  66 S3          N/A
BUTTE            N/A     44  34  68 S8          N/A
CHAMBERS         N/A     37  33  85 CALM        N/A
EWING            N/A     36  33  88 CALM        N/A
$$

...OBSERVATIONS IN SOUTHWEST NEBRASKA AND FAR NORTHEAST COLORADO...

CITY           SKY/WX    TMP DP  RH WIND       PRES   REMARKS
WRAY           FAIR      34  32  93 W5        30.07F WCI  30
HOLYOKE        FAIR      36  32  87 CALM      30.07F
IMPERIAL       CLOUDY    39  32  76 W3        30.07S
OGALLALA       CLEAR     35  32  87 CALM      30.06F
NORTH PLATTE   CLOUDY    32  30  92 NW6       30.06S WCI  26
MCCOOK         CLOUDY    37  34  89 W3        30.06S
LEXINGTON      CLOUDY    35  32  88 W6        30.06R WCI  30
STAPLETON        N/A     37  33  84 CALM        N/A
GOTHENBURG       N/A     37  32  82 CALM        N/A
CALLAWAY         N/A     46  35  66 SE5         N/A
$$

...OBSERVATIONS IN CENTRAL LINCOLN COUNTY AREA...

CITY           SKY/WX    TMP DP  RH WIND       PRES   REMARKS
N.P. AIRPORT   CLOUDY    32  30  92 NW6       30.06S WCI  26
N.P. DOWNTOWN    N/A     37  34  90 CALM        N/A
N.P. SOUTHEAST   N/A     38  34  85 CALM        N/A
N.P. HILLCREST   N/A     42  36  78 NW3         N/A
$$

...SOME OBSERVATIONS FROM AROUND THE REGION...

CITY           SKY/WX    TMP DP  RH WIND       PRES   REMARKS
DENVER         CLOUDY    45  22  40 W8        30.08S
LIMON          CLOUDY    28  26  92 N6        30.13S WCI  22
ASPEN          CLOUDY    36  20  52 CALM      30.22F
LARAMIE        CLOUDY    31  16  54 SW7       30.16S WCI  24
CASPER         CLOUDY    42  17  36 SW13      30.01S
CHEYENNE       CLOUDY    43  19  38 W12       30.10S
SCOTTSBLUFF    CLOUDY    37  30  75 E5        30.02S WCI  33
GRAND ISLAND   CLOUDY    40  37  89 CALM      30.06R
OMAHA          PTCLDY    43  39  86 CALM      30.07R
SIOUX FALLS    PTCLDY    38  35  89 CALM      30.03F
PIERRE         CLOUDY    46  36  68 SE13      29.88F
RAPID CITY     CLOUDY    43  26  51 E5        29.87S
BISMARCK       CLOUDY    38  29  70 E3        29.82S
KANSAS CITY    CLEAR     49  47  93 S8        30.09R
HILL CITY      CLEAR     39  36  89 W5        30.06S
WICHITA        PTCLDY    51  47  86 SE8       30.07R
DODGE CITY     CLOUDY    48  44  86 S5        30.06S
OKLAHOMA CITY  MOCLDY    53  45  74 S10       30.10R
DALLAS         MOCLDY    61  55  81 S3        30.12R
AMARILLO       CLEAR     51  43  74 SE13      30.07R
$$




USA.gov is the U.S. government's official web portal to all federal, state and local government web resources and services.